Location: Carrières
(48.9495°N, 2.0407°E)
Time: 07:39:19
(UTC+00:00)

Tiros 1 despin weight - Pass Details

Date: 21 April 2024
Orbit: 578 x 621 km, 48.2° (Epoch: 25 May)

Event Time Altitude Azimuth Distance (km) Brightness Sun altitude
Rises 16:40:22 0° 281° (WNW) 2,865 ? 20.6°
Reaches altitude 10° 16:42:41 10° 277° (W) 1,967 ? 20.3°
Maximum altitude 16:47:05 53° 201° (SSW) 761 ? 19.5°
Drops below altitude 10° 16:51:31 10° 125° (SE) 1,981 ? 18.8°
Sets 16:53:52 0° 121° (ESE) 2,888 ? 18.4°
